Location: Rio Negrinho
(26.2394°S, 49.4999°W)
Time: 19:43:28
(UTC+00:00)

Cosmos 1844 - Pass Details

Date: 10 October 2020
Orbit: 824 x 866 km, 70.9° (Epoch: 20 October)

Event Time Altitude Azimuth Distance (km) Brightness Sun altitude
Exits shadow 06:42:46 84° 357° (N) 862 3.6 -27.7°
Maximum altitude 06:42:58 88° 69° (ENE) 858 3.6 -27.7°
Drops below altitude 10° 06:48:45 10° 161° (SSE) 2,507 6.7 -26.5°
Sets 06:51:14 0° 161° (SSE) 3,455 7.5 -26.0°
